Regional Weather Roundup
Issued by NWS

Home | Current Version | Previous Version | Graphics & Text | Print | Product List | Glossary On
Versions: 1 2 3 4 5 6 7 8 9 10 11 12 13 14 15 16 17 18 19 20 21 22 23 24 25 26 27 28 29 30 31 32 33 34 35 36 37 38 39 40 41 42 43 44 45 46 47 48 49 50
558
ASUS43 KLSX 292057
RWRMO

WEATHER SUMMARY FOR MISSOURI
NATIONAL WEATHER SERVICE SPRINGFIELD MO
400 PM CDT SAT APR 29 2017

NOTE: "FAIR" INDICATES FEW OR NO CLOUDS BELOW 12,000 FEET WITH NO
       SIGNIFICANT WEATHER AND/OR OBSTRUCTIONS TO VISIBILITY.
       CURRENT SKY AND/OR WEATHER CONDITIONS ARE NOT AVAILABLE FOR
       CHILLICOTHE AND FARMINGTON.

MOZ001>031-035>038-043-044-053-054-292200-
...NORTHERN AND WESTERN MISSOURI...

CITY           SKY/WX    TMP DP  RH WIND       PRES   REMARKS
KANSAS CTY INT LGT RAIN  48  46  93 E22G36    29.67F
LEE`S SUMMIT   LGT RAIN  48  48 100 E30G41    29.72F
ST JOSEPH      CLOUDY    47  45  93 E18G36    29.76F
CHILLICOTHE      N/A     45  43  93 NE17G26   29.88F

$$
MOZ066>068-077>081-088>096-101>105-292200-
...SOUTHWEST MISSOURI...

CITY           SKY/WX    TMP DP  RH WIND       PRES   REMARKS
SPRINGFIELD    LGT RAIN  61  60  97 CALM      29.74R
JOPLIN         TSTM      54  53  97 NE17      29.72S FOG
BRANSON        TSTM      64  64 100 S9G18     29.70F FOG

$$
MOZ032>034-039>042-045>050-055>058-069>072-292200-
...CENTRAL MISSOURI...

CITY           SKY/WX    TMP DP  RH WIND       PRES   REMARKS
COLUMBIA       NOT AVBL
JEFFERSON CITY RAIN      53  49  86 NE8G21    29.81F
ROLLA          RAIN      59  59 100 W3        29.81R FOG
SEDALIA        LGT RAIN  49  49 100 NE20G26   29.81F
WHITEMAN AFB   TSTM      48  48 100 E17G26    29.75F
OSAGE BEACH    RAIN      54  54 100 CALM      29.83R FOG

$$
MOZ051-052-059>065-292200-
...EAST CENTRAL MISSOURI...

CITY           SKY/WX    TMP DP  RH WIND       PRES   REMARKS
ST LOUIS INTL  TSTM      65  62  90 SW13      29.76R VSB 1
ST CHARLES     TSTM      63  61  94 NW17G41   29.73R VSB 1

$$
MOZ072>076-082>087-097>100-106>115-292200-
...SOUTH CENTRAL AND SOUTHEAST MISSOURI...

CITY           SKY/WX    TMP DP  RH WIND       PRES   REMARKS
CAPE GIRARDEAU CLOUDY    82  68  62 S22G29    29.80F
POPLAR BLUFF   PTSUNNY   84  69  60 S17G29    29.77F
WEST PLAINS    TSTM      63  62  97 NE15G22   29.76S FOG

$$



USA.gov is the U.S. government's official web portal to all federal, state and local government web resources and services.